Location: Unspecified
(0.0000°N, 0.0000°E)
Time: 08:19:08

XW-2C - Pass Details

Date: 15 December 2017
Orbit: 511 x 531 km, 97.5° (Epoch: 21 March)

Event Time Altitude Azimuth Distance (km) Brightness Sun altitude
Rises 18:31:11 0° 200° (SSW) 2,621 ? -8.2°
Reaches altitude 10° 18:34:02 10° 224° (SW) 1,734 ? -8.9°
Maximum altitude 18:36:08 15° 259° (WSW) 1,467 ? -9.3°
Drops below altitude 10° 18:38:16 10° 293° (WNW) 1,740 ? -9.8°
Sets 18:41:07 0° 318° (NW) 2,621 ? -10.5°
